Preview of NWS' New Version of Forecast
This preview is not operational and should not be used for support decisions.

Regional Weather Roundup (RWR)

Issued by Philadelphia/Mt Holly (PHI)

                            
000
ASUS41 KPHI 172212
RWRPHI

REGIONAL WEATHER ROUNDUP
NATIONAL WEATHER SERVICE MOUNT HOLLY NJ
600 PM EDT TUE SEP 17 2019

NOTE:  "FAIR" INDICATES FEW OR NO CLOUDS BELOW 12,000 FEET WITH NO
SIGNIFICANT WEATHER AND/OR OBSTRUCTIONS TO VISIBILITY.

 * = STATION DOES NOT REPORT PRECIPITATION (E.G. RAIN, SNOW, ETC.) 
        OR FOG.

NJZ015>026-172300-
SOUTHERN NEW JERSEY
  
CITY           SKY/WX    TMP DP  RH WIND       PRES   REMARKS
POMONA         FAIR      71  51  49 E10       30.09R                  
WILDWOOD*      FAIR      70  52  52 E13       30.09R                  
MILLVILLE      FAIR      77  44  30 N8        30.08R                  
WRIGHTSTOWN    FAIR      76  44  31 N7        30.08S                  
MOUNT HOLLY    FAIR      76  47  35 NE3       30.08R                  
TRENTON        FAIR      75  44  33 N7        30.08S                  

$$
NJZ001>014-172300-
NORTHERN NEW JERSEY
  
CITY           SKY/WX    TMP DP  RH WIND       PRES   REMARKS
SUSSEX         FAIR      75  48  38 E3        30.10R                  
ANDOVER*         N/A     71  53  52 CALM      30.10S                  
MORRISTOWN     SUNNY     73  48  40 CALM      30.09F                  
NEWARK         FAIR      75  40  28 N12       30.08S                  
TETERBORO      FAIR      76  40  27 E6        30.08S                  
CALDWELL       FAIR      77  45  32 CALM      30.10S                  
SOMERVILLE     FAIR      76  42  29 CALM      30.08R                  
ALLAIRE*       FAIR      74  41  30 N9        30.10S                  
TOMS RIVER*    FAIR      71  52  50 SE5       30.10R                  

$$
PAZ043-044-047-054-055-060>062-066>071-172300-
EASTERN PENNSYLVANIA
  
CITY           SKY/WX    TMP DP  RH WIND       PRES   REMARKS
PHILADELPHIA   FAIR      78  45  30 N12G20    30.08S                  
NORTH PHILA    FAIR      78  47  33 N10       30.10R                  
BLUE BELL*     FAIR      74  48  39 NE5       30.10S                  
DOYLESTOWN     FAIR      76  46  34 NE7       30.09S                  
QUAKERTOWN*    SUNNY     75  50  41 E6        30.10                   
PERKASIE*      FAIR      73  48  40 NE6       30.11S                  
POTTSTOWN      FAIR      74  48  39 CALM      30.11S                  
LANCASTER      FAIR      77  52  41 CALM      30.09F                  
COATESVILLE    FAIR      73  46  38 N5        30.12S                  
WEST CHESTER   FAIR      77  43  29 NE6       30.10R                  
READING        FAIR      77  51  40 NW3       30.08S                  
ALLENTOWN      FAIR      78  46  32 NE8       30.09S                  
QN CITY/ALNTWN FAIR      77  48  36 E6        30.11S                  
MOUNT POCONO   FAIR      68  41  37 N8        30.15S                  
HAZLETON       FAIR      70  43  37 N5        30.18S                  
LEHIGHTON      FAIR      73  43  33 N6        30.11S                  
WILKES BARRE   FAIR      75  48  38 N9        30.13S                  

$$
DEZALL-MDZ008-012-015-019-020-172300-
DELAWARE AND EASTERN MARYLAND
  
CITY           SKY/WX    TMP DP  RH WIND       PRES   REMARKS
WILMINGTON     FAIR      79  49  34 NE10      30.08S                  
DOVER          FAIR      73  55  52 SE7       30.08R                  
CHESWOLD       CLEAR     73  57  56 SE5       30.08R                  
GEORGETOWN     FAIR      73  53  49 E10       30.09S                  
EASTON         MOSUNNY   79  57  47 E3        30.11S                  
STEVENSVILLE   FAIR      77  55  47 CALM      30.07S                  
ABERDEEN       MOSUNNY   79  50  36 NE6       30.08                   
PATUXENT       PTSUNNY   77  59  53 NE7       30.07R                  
OCEAN CITY     FAIR      71  54  54 NE10      30.09R                  
WALLOPS ISLAND FAIR      71  56  58 NE15      30.09R                  
CAMBRIDGE      SUNNY     77  57  50 E10       30.07S                  
SALISBURY      FAIR      73  53  49 E8        30.08S                  

$$
PAZ001-021-NYZ056-072-MDZ011-DCZ001-172300-
OTHER NEARBY LOCATIONS
  
CITY           SKY/WX    TMP DP  RH WIND       PRES   REMARKS
HARRISBURG     FAIR      79  45  29 N9        30.08S                  
STATE COLLEGE  SUNNY     72  50  46 E5        30.15S                  
WILLIAMSPORT   FAIR      75  47  36 N7        30.12R                  
BINGHAMTON     FAIR      67  47  48 N12       30.17S                  
NEW YORK CITY  FAIR      73  39  29 VRB5      30.12S                  
BALTIMORE      FAIR      79  56  45 E8        30.07S                  
WASHINGTON DC  FAIR      78  58  49 E7        30.08R                  

$$